H1 CPF 2 NER 2023 11 18 9 322 01 glonass133 H2 1403201 9133 40001 2023 11 18 0 0 0 2023 11 21 23 45 0 900 1 1 0 0 0 1 H9 10 0 60266 0.00000 0 -6533777.527 24363115.816 3692872.625 10 0 60266 900.00000 0 -6414032.197 24667354.769 464623.829 10 0 60266 1800.00000 0 -6183018.053 24573901.249 -2772666.210 10 0 60266 2700.00000 0 -5897136.299 24073213.770 -5955980.993 10 0 60266 3600.00000 0 -5613981.956 23169453.848 -9023349.912 10 0 60266 4500.00000 0 -5389672.439 21880403.296 -11915064.203 10 0 60266 5400.00000 0 -5276245.833 20236824.980 -14574847.728 10 0 60266 6300.00000 0 -5319240.364 18281293.818 -16950958.918 10 0 60266 7200.00000 0 -5555558.667 16066547.257 -18997201.666 10 0 60266 8100.00000 0 -6011708.077 13653424.775 -20673825.206 10 0 60266 9000.00000 0 -6702491.981 11108483.129 -21948295.456 10 0 60266 9900.00000 0 -7630207.869 8501387.487 -22795923.106 10 0 60266 10800.00000 0 -8784386.105 5902187.630 -23200336.837 10 0 60266 11700.00000 0 -10142080.525 3378592.767 -23153793.187 10 0 60266 12600.00000 0 -11668698.615 993358.208 -22657317.856 10 0 60266 13500.00000 0 -13319336.428 -1198108.050 -21720676.493 10 0 60266 14400.00000 0 -15040562.248 -3149820.289 -20362176.232 10 0 60266 15300.00000 0 -16772574.293 -4826886.596 -18608302.372 10 0 60266 16200.00000 0 -18451642.212 -6206709.039 -16493197.677 10 0 60266 17100.00000 0 -20012730.315 -7279664.327 -14057994.610 10 0 60266 18000.00000 0 -21392192.947 -8049238.510 -11350013.607 10 0 60266 18900.00000 0 -22530429.406 -8531612.048 -8421842.964 10 0 60266 19800.00000 0 -23374387.537 -8754714.464 -5330318.140 10 0 60266 20700.00000 0 -23879811.425 -8756789.910 -2135420.252 10 0 60266 21600.00000 0 -24013139.278 -8584535.242 1100884.976 10 0 60266 22500.00000 0 -23752972.258 -8290890.041 4315845.402 10 0 60266 23400.00000 0 -23091052.826 -7932572.340 7447134.682 10 0 60266 24300.00000 0 -22032711.694 -7567464.372 10434055.229 10 0 60266 25200.00000 0 -20596764.552 -7251958.698 13218708.937 10 0 60266 26100.00000 0 -18814862.558 -7038376.616 15747113.334 10 0 60266 27000.00000 0 -16730323.274 -6972567.538 17970242.083 10 0 60266 27900.00000 0 -14396490.062 -7091790.429 19844970.259 10 0 60266 28800.00000 0 -11874687.469 -7422966.528 21334906.663 10 0 60266 29700.00000 0 -9231856.663 -7981377.146 22411097.645 10 0 60266 30600.00000 0 -6537968.067 -8769861.846 23052589.209 10 0 60266 31500.00000 0 -3863317.574 -9778551.584 23246836.782 10 0 60266 32400.00000 0 -1275817.458 -10985149.253 22989954.648 10 0 60266 33300.00000 0 1161606.550 -12355747.338 22286799.924 10 0 60266 34200.00000 0 3393404.775 -13846150.037 21150888.817 10 0 60266 35100.00000 0 5373481.030 -15403646.090 19604145.908 10 0 60266 36000.00000 0 7066872.028 -16969159.512 17676490.258 10 0 60266 36900.00000 0 8450959.032 -18479689.227 15405265.228 10 0 60266 37800.00000 0 9516161.364 -19870936.081 12834522.000 10 0 60266 38700.00000 0 10266082.886 -21080007.251 10014169.767 10 0 60266 39600.00000 0 10717105.486 -22048084.208 6999008.487 10 0 60266 40500.00000 0 10897446.968 -22722941.399 3847662.737 10 0 60266 41400.00000 0 10845723.516 -23061208.632 621437.489 10 0 60266 42300.00000 0 10609078.102 -23030280.606 -2616881.384 10 0 60266 43200.00000 0 10240954.863 -22609791.799 -5804257.708 10 0 60266 44100.00000 0 9798614.759 -21792593.267 -8878641.717 10 0 60266 45000.00000 0 9340498.935 -20585189.107 -11780187.592 10 0 60266 45900.00000 0 8923552.786 -19007613.377 -14452427.026 10 0 60266 46800.00000 0 8600625.266 -17092752.095 -16843375.021 10 0 60266 47700.00000 0 8418054.630 -14885138.645 -18906545.654 10 0 60266 48600.00000 0 8413543.599 -12439273.110 -20601857.722 10 0 60266 49500.00000 0 8614414.322 -9817536.125 -21896412.620 10 0 60266 50400.00000 0 9036317.128 -7087784.735 -22765129.614 10 0 60266 51300.00000 0 9682447.564 -4320730.797 -23191226.729 10 0 60266 52200.00000 0 10543304.599 -1587211.194 -23166538.660 10 0 60266 53100.00000 0 11596999.873 1044536.684 -22691666.289 10 0 60266 54000.00000 0 12810104.744 3511481.402 -21775955.745 10 0 60266 54900.00000 0 14138999.243 5758178.399 -20437308.075 10 0 60266 55800.00000 0 15531666.091 7738827.506 -18701823.777 10 0 60266 56700.00000 0 16929854.379 9418922.955 -16603289.527 10 0 60266 57600.00000 0 18271522.092 10776428.898 -14182517.248 10 0 60266 58500.00000 0 19493455.056 11802433.240 -11486548.522 10 0 60266 59400.00000 0 20533952.554 12501254.421 -8567739.793 10 0 60266 60300.00000 0 21335467.100 12889998.544 -5482746.072 10 0 60266 61200.00000 0 21847087.753 12997587.137 -2291422.833 10 0 60266 62100.00000 0 22026762.949 12863297.850 944332.687 10 0 60266 63000.00000 0 21843169.684 12534880.658 4161778.426 10 0 60266 63900.00000 0 21277150.658 12066329.709 7298539.574 10 0 60266 64800.00000 0 20322659.063 11515405.211 10293812.522 10 0 60266 65700.00000 0 18987171.137 10941010.023 13089537.655 10 0 60266 66600.00000 0 17291548.818 10400531.488 15631518.634 10 0 60266 67500.00000 0 15269357.574 9947260.315 17870466.997 10 0 60266 68400.00000 0 12965667.019 9627994.984 19762952.440 10 0 60266 69300.00000 0 10435383.293 9480932.267 21272240.943 10 0 60266 70200.00000 0 7741181.401 9533932.525 22369005.075 10 0 60266 71100.00000 0 4951122.164 9803232.834 23031893.205 10 0 60266 72000.00000 0 2136051.429 10292662.446 23247946.791 10 0 60266 72900.00000 0 -633111.827 10993394.252 23012857.704 10 0 60266 73800.00000 0 -3288087.176 11884243.745 22331060.278 10 0 60266 74700.00000 0 -5765832.670 12932504.184 21215655.705 10 0 60266 75600.00000 0 -8010925.857 14095284.318 19688169.381 10 0 60266 76500.00000 0 -9977627.475 15321293.873 17778144.836 10 0 60266 77400.00000 0 -11631542.238 16553003.016 15522580.989 10 0 60266 78300.00000 0 -12950807.627 17729085.931 12965222.552 10 0 60266 79200.00000 0 -13926761.075 18787046.235 10155716.393 10 0 60266 80100.00000 0 -14564057.659 19665913.692 7148649.621 10 0 60266 81000.00000 0 -14880233.510 20308898.176 4002487.768 10 0 60266 81900.00000 0 -14904733.630 20665888.089 778433.814 10 0 60266 82800.00000 0 -14677445.592 20695686.625 -2460769.233 10 0 60266 83700.00000 0 -14246801.827 20367890.116 -5652068.062 10 0 60266 84600.00000 0 -13667531.676 19664327.754 -8733336.138 10 0 60266 85500.00000 0 -12998159.467 18580000.631 -11644592.805 10 0 60267 0.00000 0 -12298355.809 17123479.478 -14329179.357 10 0 60267 900.00000 0 -11626255.000 15316742.678 -16734869.623 10 0 60267 1800.00000 0 -11035854.079 13194462.783 -18814889.139 10 0 60267 2700.00000 0 -10574603.078 10802768.610 -20528827.539 10 0 60267 3600.00000 0 -10281289.734 8197536.536 -21843422.725 10 0 60267 4500.00000 0 -10184307.853 5442281.798 -22733203.325 10 0 60267 5400.00000 0 -10300382.284 2605738.021 -23180977.252 10 0 60267 6300.00000 0 -10633803.905 -240774.178 -23178157.615 10 0 60267 7200.00000 0 -11176206.310 -3026080.082 -22724920.441 10 0 60267 8100.00000 0 -11906892.955 -5681872.055 -21830191.957 10 0 60267 9000.00000 0 -12793700.405 -8145306.575 -20511466.362 10 0 60267 9900.00000 0 -13794360.824 -10361370.135 -18794458.222 10 0 60267 10800.00000 0 -14858305.983 -12284916.894 -16712596.610 10 0 60267 11700.00000 0 -15928836.688 -13882294.792 -14306371.075 10 0 60267 12600.00000 0 -16945566.231 -15132494.018 -11622542.242 10 0 60267 13500.00000 0 -17847035.124 -16027771.691 -8713232.398 10 0 60267 14400.00000 0 -18573387.199 -16573728.435 -5634913.657 10 0 60267 15300.00000 0 -19068994.629 -16788835.330 -2447313.311 10 0 60267 16200.00000 0 -19284921.623 -16703432.622 787742.496 10 0 60267 17100.00000 0 -19181123.221 -16358243.507 4007524.438 10 0 60267 18000.00000 0 -18728286.839 -15802466.509 7149611.934 10 0 60267 18900.00000 0 -17909239.026 -15091527.333 10153098.058 10 0 60267 19800.00000 0 -16719858.154 -14284585.222 12959764.364 10 0 60267 20700.00000 0 -15169454.239 -13441898.812 15515203.238 10 0 60267 21600.00000 0 -13280599.324 -12622162.223 17769866.518 10 0 60267 22500.00000 0 -11088414.497 -11879923.096 19680020.712 10 0 60267 23400.00000 0 -8639342.169 -11263190.771 21208590.832 10 0 60267 24300.00000 0 -5989453.361 -10811334.781 22325877.160 10 0 60267 25200.00000 0 -3202358.921 -10553361.680 23010131.479 10 0 60267 26100.00000 0 -346809.924 -10506642.569 23247981.902 10 0 60267 27000.00000 0 2505914.628 -10676144.995 23034698.061 10 0 60267 27900.00000 0 5284725.878 -11054201.993 22374291.257 10 0 60267 28800.00000 0 7921437.316 -11620828.810 21279447.018 10 0 60267 29700.00000 0 10353359.515 -12344575.005 19771290.530 10 0 60267 30600.00000 0 12525670.261 -13183877.241 17878988.403 10 0 60267 31500.00000 0 14393461.850 -14088856.931 15639193.367 10 0 60267 32400.00000 0 15923380.384 -15003487.970 13095341.567 10 0 60267 33300.00000 0 17094788.613 -15868043.806 10296815.114 10 0 60267 34200.00000 0 17900403.575 -16621720.833 7297985.507 10 0 60267 35100.00000 0 18346382.240 -17205327.124 4157156.218 10 0 60267 36000.00000 0 18451851.671 -17563922.249 935425.036 10 0 60267 36900.00000 0 18247903.733 -17649295.547 -2304511.168 10 0 60267 37800.00000 0 17776097.316 -17422176.762 -5499585.194 10 0 60267 38700.00000 0 17086532.074 -16854084.138 -8587596.847 10 0 60267 39600.00000 0 16235576.080 -15928730.416 -11508433.531 10 0 60267 40500.00000 0 15283344.602 -14642926.014 -14205249.238 10 0 60267 41400.00000 0 14291037.722 -13006940.158 -16625577.986 10 0 60267 42300.00000 0 13318250.404 -11044303.860 -18722359.289 10 0 60267 43200.00000 0 12420369.500 -8791062.434 -20454855.283 10 0 60267 44100.00000 0 11646168.126 -6294508.474 -21789441.684 10 0 60267 45000.00000 0 11035699.075 -3611448.179 -22700257.385 10 0 60267 45900.00000 0 10618575.918 -806073.358 -23169700.683 10 0 60267 46800.00000 0 10412713.669 2052472.262 -23188763.185 10 0 60267 47700.00000 0 10423581.278 4892731.188 -22757195.735 10 0 60267 48600.00000 0 10643996.484 7643665.386 -21883503.929 10 0 60267 49500.00000 0 11054470.661 10237371.477 -20584774.030 10 0 60267 50400.00000 0 11624088.219 12611665.823 -18886333.220 10 0 60267 51300.00000 0 12311882.703 14712433.021 -16821251.197 10 0 60267 52200.00000 0 13068651.052 16495641.378 -14429693.040 10 0 60267 53100.00000 0 13839129.119 17928942.814 -11758136.017 10 0 60267 54000.00000 0 14564436.588 18992792.026 -8858465.583 10 0 60267 54900.00000 0 15184688.148 19681039.809 -5786968.049 10 0 60267 55800.00000 0 15641660.882 20000977.258 -2603239.439 10 0 60267 56700.00000 0 15881405.557 19972830.498 630968.364 10 0 60267 57600.00000 0 15856691.845 19628728.435 3852941.921 10 0 60267 58500.00000 0 15529184.528 19011187.910 7000217.926 10 0 60267 59400.00000 0 14871258.993 18171180.676 10011788.984 10 0 60267 60300.00000 0 13867379.444 17165863.893 12829280.412 10 0 60267 61200.00000 0 12514981.477 16056069.714 15398075.612 10 0 60267 62100.00000 0 10824821.291 14903659.337 17668368.720 10 0 60267 63000.00000 0 8820775.932 13768852.335 19596124.717 10 0 60267 63900.00000 0 6539101.689 12707642.966 21143929.017 10 0 60267 64800.00000 0 4027180.122 11769411.319 22281710.637 10 0 60267 65700.00000 0 1341802.285 10994829.053 22987325.467 10 0 60267 66600.00000 0 -1452939.178 10414147.158 23246988.576 10 0 60267 67500.00000 0 -4288064.217 10045937.375 23055547.247 10 0 60267 68400.00000 0 -7092327.242 9896340.146 22416589.178 10 0 60267 69300.00000 0 -9794939.234 9958850.970 21342383.182 10 0 60267 70200.00000 0 -12328278.225 10214654.717 19853652.685 10 0 60267 71100.00000 0 -14630476.379 10633494.592 17979185.359 10 0 60267 72000.00000 0 -16647776.505 11175039.975 15755285.321 10 0 60267 72900.00000 0 -18336560.010 11790696.287 13225077.407 10 0 60267 73800.00000 0 -19664961.600 12425781.111 10437676.006 10 0 60267 74700.00000 0 -20614002.949 13021974.957 7447233.962 10 0 60267 75600.00000 0 -21178197.577 13519942.985 4311889.644 10 0 60267 76500.00000 0 -21365601.362 13862016.267 1092632.695 10 0 60267 77400.00000 0 -21197306.525 13994818.221 -2147888.964 10 0 60267 78300.00000 0 -20706400.665 13871723.784 -5346596.893 10 0 60267 79200.00000 0 -19936435.232 13455045.833 -8441219.698 10 0 60267 80100.00000 0 -18939468.873 12717854.797 -11371515.110 10 0 60267 81000.00000 0 -17773769.244 11645353.088 -14080451.627 10 0 60267 81900.00000 0 -16501271.391 10235744.956 -16515325.732 10 0 60267 82800.00000 0 -15184901.046 8500564.022 -18628792.158 10 0 60267 83700.00000 0 -13885876.634 6464443.804 -20379786.745 10 0 60267 84600.00000 0 -12661104.367 4164340.258 -21734323.892 10 0 60267 85500.00000 0 -11560776.399 1648238.523 -22666153.321 10 0 60268 0.00000 0 -10626273.096 -1026602.076 -23157263.936 10 0 60268 900.00000 0 -9888456.628 -3795793.148 -23198225.877 10 0 60268 1800.00000 0 -9366427.994 -6590259.657 -22788364.374 10 0 60268 2700.00000 0 -9066796.898 -9338882.982 -21935763.735 10 0 60268 3600.00000 0 -8983495.175 -11971231.594 -20657101.313 10 0 60268 4500.00000 0 -9098139.751 -14420267.763 -18977315.636 10 0 60268 5400.00000 0 -9380928.721 -16624918.291 -16929115.484 10 0 60268 6300.00000 0 -9792031.710 -18532403.340 -14552339.685 10 0 60268 7200.00000 0 -10283415.120 -20100227.460 -11893180.180 10 0 60268 8100.00000 0 -10801024.672 -21297751.143 -9003283.497 10 0 60268 9000.00000 0 -11287232.819 -22107278.654 -5938747.954 10 0 60268 9900.00000 0 -11683447.553 -22524618.011 -2759036.086 10 0 60268 10800.00000 0 -11932772.468 -22559091.038 474176.739 10 0 60268 11700.00000 0 -11982605.828 -22232994.230 3698195.257 10 0 60268 12600.00000 0 -11787069.036 -21580534.095 6850515.754 10 0 60268 13500.00000 0 -11309162.070 -20646282.389 9870032.711 10 0 60268 14400.00000 0 -10522554.956 -19483216.625 12698217.579 10 0 60268 15300.00000 0 -9412939.509 -18150428.307 15280247.127 10 0 60268 16200.00000 0 -7978883.988 -16710595.008 17566060.052 10 0 60268 17100.00000 0 -6232153.905 -15227322.003 19511321.954 10 0 60268 18000.00000 0 -4197484.369 -13762464.402 21078280.566 10 0 60268 18900.00000 0 -1911812.062 -12373541.346 22236495.302 10 0 60268 19800.00000 0 577002.864 -11111349.863 22963427.495 10 0 60268 20700.00000 0 3211913.497 -10017877.662 23244880.162 10 0 60268 21600.00000 0 5928811.138 -9124601.750 23075278.854 10 0 60268 22500.00000 0 8658952.031 -8451243.762 22457787.915 10 0 60268 23400.00000 0 11331586.626 -8005034.109 21404259.306 10 0 60268 24300.00000 0 13876683.505 -7780515.913 19935014.184 10 0 60268 25200.00000 0 16227635.740 -7759897.306 18078460.396 10 0 60268 26100.00000 0 18323837.653 -7913937.742 15870552.169 10 0 60268 27000.00000 0 20113024.872 -8203331.519 13354101.339 10 0 60268 27900.00000 0 21553279.920 -8580530.551 10577952.485 10 0 60268 28800.00000 0 22614619.136 -8991929.682 7596037.296 10 0 60268 29700.00000 0 23280093.997 -9380322.017 4466326.160 10 0 60268 30600.00000 0 23546360.177 -9687519.990 1249697.396 10 0 60268 31500.00000 0 23423690.082 -9857030.329 -1991253.411 10 0 60268 32400.00000 0 22935428.222 -9836668.483 -5193440.045 10 0 60268 33300.00000 0 22116912.553 -9581000.403 -8294523.332 10 0 60268 34200.00000 0 21013907.734 -9053506.718 -11234134.566 10 0 60268 35100.00000 0 19680617.112 -8228376.242 -13955059.731 10 0 60268 36000.00000 0 18177358.160 -7091851.509 -16404360.433 10 0 60268 36900.00000 0 16568000.350 -5643068.319 -18534408.935 10 0 60268 37800.00000 0 14917274.277 -3894352.841 -20303816.725 10 0 60268 38700.00000 0 13288065.972 -1870962.988 -21678238.467 10 0 60268 39600.00000 0 11738810.582 389715.655 -22631035.921 10 0 60268 40500.00000 0 10321094.893 2839486.077 -23143789.473 10 0 60268 41400.00000 0 9077568.911 5421113.530 -23206648.045 10 0 60268 42300.00000 0 8040253.288 8070482.843 -22818511.421 10 0 60268 43200.00000 0 7229312.405 10719049.720 -21987042.231 10 0 60268 44100.00000 0 6652343.113 13296484.273 -20728508.137 10 0 60268 45000.00000 0 6304207.410 15733397.198 -19067457.827 10 0 60268 45900.00000 0 6167414.469 17964035.754 -17036237.581 10 0 60268 46800.00000 0 6213034.423 19928838.055 -14674358.007 10 0 60268 47700.00000 0 6402104.177 21576740.136 -12027723.394 10 0 60268 48600.00000 0 6687464.908 22867140.616 -9147738.664 10 0 60268 49500.00000 0 7015953.036 23771442.047 -6090311.189 10 0 60268 50400.00000 0 7330851.642 24274105.632 -2914766.819 10 0 60268 51300.00000 0 7574498.558 24373176.325 317298.920 10 0 60268 52200.00000 0 7690940.859 24080257.334 3543212.299 10 0 60268 53100.00000 0 7628523.623 23419935.994 6700432.485 10 0 60268 54000.00000 0 7342303.687 22428685.798 9727758.966 10 0 60268 54900.00000 0 6796186.499 21153291.077 12566512.199 10 0 60268 55800.00000 0 5964695.824 19648860.600 15161664.908 10 0 60268 56700.00000 0 4834301.391 17976513.288 17462902.629 10 0 60268 57600.00000 0 3404247.973 16200832.646 19425593.510 10 0 60268 58500.00000 0 1686850.144 14387195.941 21011649.213 10 0 60268 59400.00000 0 -292760.999 12599089.160 22190260.814 10 0 60268 60300.00000 0 -2497430.139 10895519.158 22938495.989 10 0 60268 61200.00000 0 -4879277.843 9328630.385 23241746.213 10 0 60268 62100.00000 0 -7381456.214 7941624.982 23094015.391 10 0 60268 63000.00000 0 -9940288.941 6767072.594 22498044.117 10 0 60268 63900.00000 0 -12487708.505 5825680.123 21465266.607 10 0 60268 64800.00000 0 -14953890.694 5125572.717 20015600.326 10 0 60268 65700.00000 0 -17269978.027 4662116.079 18177071.355 10 0 60268 66600.00000 0 -19370779.440 4418287.713 15985281.609 10 0 60268 67500.00000 0 -21197334.017 4365581.692 13482727.106 10 0 60268 68400.00000 0 -22699231.737 4465409.056 10717979.485 10 0 60268 69300.00000 0 -23836593.736 4670934.846 7744745.962 10 0 60268 70200.00000 0 -24581628.560 4929274.021 4620825.574 10 0 60268 71100.00000 0 -24919698.416 5183952.963 1406981.976 10 0 60268 72000.00000 0 -24849849.941 5377531.578 -1834244.805 10 0 60268 72900.00000 0 -24384786.698 5454273.867 -5039763.814 10 0 60268 73800.00000 0 -23550284.323 5362752.444 -8147170.923 10 0 60268 74700.00000 0 -22384073.073 5058275.211 -11095973.591 10 0 60268 75600.00000 0 -20934235.255 4505029.845 -13828777.614 10 0 60268 76500.00000 0 -19257185.721 3677853.921 -16292411.741 10 0 60268 77400.00000 0 -17415321.254 2563554.499 -18438967.442 10 0 60268 78300.00000 0 -15474438.596 1161720.416 -20226733.125 10 0 60268 79200.00000 0 -13501030.314 -515007.890 -21621004.566 10 0 60268 80100.00000 0 -11559572.535 -2441222.977 -22594755.959 10 0 60268 81000.00000 0 -9709918.418 -4579577.997 -23129159.104 10 0 60268 81900.00000 0 -8004906.260 -6882122.966 -23213941.345 10 0 60268 82800.00000 0 -6488281.728 -9292094.094 -22847576.118 10 0 60268 83700.00000 0 -5193020.024 -11746081.689 -22037303.224 10 0 60268 84600.00000 0 -4140116.763 -14176486.513 -20798979.177 10 0 60268 85500.00000 0 -3337896.509 -16514162.513 -19156761.138 10 0 60269 0.00000 0 -2781866.163 -18691136.061 -17142631.187 10 0 60269 900.00000 0 -2455117.258 -20643290.074 -14795769.312 10 0 60269 1800.00000 0 -2329259.278 -22312898.870 -12161790.170 10 0 60269 2700.00000 0 -2365842.259 -23650912.638 -9291854.890 10 0 60269 3600.00000 0 -2518208.338 -24618893.981 -6241677.697 10 0 60269 4500.00000 0 -2733692.939 -25190527.676 -3070445.600 10 0 60269 5400.00000 0 -2956082.119 -25352641.102 160327.839 10 0 60269 6300.00000 0 -3128221.972 -25105693.455 3387992.503 10 0 60269 7200.00000 0 -3194669.650 -24463713.954 6549972.472 10 0 60269 8100.00000 0 -3104274.026 -23453692.188 9584974.251 10 0 60269 9000.00000 0 -2812576.996 -22114446.529 12434169.294 10 0 60269 9900.00000 0 -2283934.054 -20495018.153 15042328.231 10 0 60269 10800.00000 0 -1493264.555 -18652657.822 17358885.308 10 0 60269 11700.00000 0 -427357.555 -16650489.286 19338913.005 10 0 60269 12600.00000 0 914322.410 -14554946.422 20943988.529 10 0 60269 13500.00000 0 2519364.439 -12433090.390 22142936.035 10 0 60269 14400.00000 0 4362688.075 -10349917.889 22912430.733 10 0 60269 15300.00000 0 6407357.855 -8365771.860 23237453.478 10 0 60269 16200.00000 0 8605903.486 -6533961.713 23111587.172 10 0 60269 17100.00000 0 10902092.549 -4898691.478 22537149.021 10 0 60269 18000.00000 0 13233083.698 -3493381.703 21525155.554 10 0 60269 18900.00000 0 15531872.370 -2339454.675 20095120.307 10 0 60269 19800.00000 0 17729928.485 -1445633.468 18274687.038 10 0 60269 20700.00000 0 19759917.095 -807784.048 16099104.463 10 0 60269 21600.00000 0 21558388.989 -409307.061 13610551.524 10 0 60269 22500.00000 0 23068328.872 -222062.788 10857325.289 10 0 60269 23400.00000 0 24241454.112 -207790.318 7892906.468 10 0 60269 24300.00000 0 25040167.054 -319960.811 4774920.317 10 0 60269 25200.00000 0 25439078.104 -505986.095 1564013.049 10 0 60269 26100.00000 0 25426034.644 -709688.452 -1677333.923 10 0 60269 27000.00000 0 25002611.672 -873925.967 -4886028.144 10 0 60269 27900.00000 0 24184042.923 -943260.970 -7999603.827 10 0 60269 28800.00000 0 22998595.031 -866557.056 -10957447.808 10 0 60269 29700.00000 0 21486411.145 -599393.169 -13701988.732 10 0 60269 30600.00000 0 19697872.934 -106191.078 -16179825.272 10 0 60269 31500.00000 0 17691550.501 638035.095 -18342770.580 10 0 60269 32400.00000 0 15531826.996 1646382.324 -20148792.157 10 0 60269 33300.00000 0 13286298.287 2919270.742 -21562828.748 10 0 60269 34200.00000 0 11023057.265 4444198.151 -22557468.540 10 0 60269 35100.00000 0 8807976.699 6196047.793 -23113475.994 10 0 60269 36000.00000 0 6702104.200 8137936.808 -23220157.789 10 0 60269 36900.00000 0 4759277.640 10222570.023 -22875561.569 10 0 60269 37800.00000 0 3024059.687 12394042.611 -22086504.461 10 0 60269 38700.00000 0 1530076.365 14590016.504 -20868431.570 10 0 60269 39600.00000 0 298827.432 16744179.849 -19245107.816 10 0 60269 40500.00000 0 -660983.585 18788887.173 -17248149.533 10 0 60269 41400.00000 0 -1353573.620 20657870.436 -14916405.204 10 0 60269 42300.00000 0 -1795655.279 22288908.226 -12295197.487 10 0 60269 43200.00000 0 -2015482.701 23626342.150 -9435441.286 10 0 60269 44100.00000 0 -2051409.725 24623335.842 -6392654.903 10 0 60269 45000.00000 0 -1950022.381 25243782.692 -3225883.435 10 0 60269 45900.00000 0 -1763925.385 25463783.091 3444.782 10 0 60269 46800.00000 0 -1549276.707 25272629.892 3232706.604 10 0 60269 47700.00000 0 -1363174.693 24673261.321 6399294.405 10 0 60269 48600.00000 0 -1261008.263 23682162.731 9441824.991 10 0 60269 49500.00000 0 -1293882.115 22328721.553 12301323.929 10 0 60269 50400.00000 0 -1506225.606 20654062.465 14922362.642 10 0 60269 51300.00000 0 -1933686.185 18709411.330 17254126.719 10 0 60269 52200.00000 0 -2601396.342 16554055.850 19251395.299 10 0 60269 53100.00000 0 -3522687.390 14252987.468 20875413.166 10 0 60269 54000.00000 0 -4698304.886 11874322.056 22094639.263 10 0 60269 54900.00000 0 -6116159.642 9486605.908 22885357.695 10 0 60269 55800.00000 0 -7751626.172 7156118.222 23232139.681 10 0 60269 56700.00000 0 -9568377.696 4944281.307 23128147.679 10 0 60269 57600.00000 0 -11519724.686 2905285.372 22575275.583 10 0 60269 58500.00000 0 -13550402.860 1084025.954 21584121.801 10 0 60269 59400.00000 0 -15598737.778 -485560.715 20173794.945 10 0 60269 60300.00000 0 -17599097.209 -1781695.442 18371554.897 10 0 60269 61200.00000 0 -19484529.969 -2795437.146 16212295.066 10 0 60269 62100.00000 0 -21189481.692 -3530818.952 13737874.727 10 0 60269 63000.00000 0 -22652474.119 -4004433.722 10996313.354 10 0 60269 63900.00000 0 -23818635.402 -4244486.579 8040861.828 10 0 60269 64800.00000 0 -24641974.667 -4289354.585 4928968.094 10 0 60269 65700.00000 0 -25087304.344 -4185714.811 1721157.309 10 0 60269 66600.00000 0 -25131728.324 -3986320.574 -1520151.334 10 0 60269 67500.00000 0 -24765632.234 -3747520.886 -4731867.389 10 0 60269 68400.00000 0 -23993133.143 -3526629.346 -7851466.757 10 0 60269 69300.00000 0 -22831969.036 -3379255.295 -10818218.796 10 0 60269 70200.00000 0 -21312832.321 -3356711.748 -13574377.879 10 0 60269 71100.00000 0 -19478175.310 -3503611.306 -16066315.161 10 0 60269 72000.00000 0 -17380538.156 -3855753.097 -18245567.642 10 0 60269 72900.00000 0 -15080469.872 -4438391.205 -20069783.616 10 0 60269 73800.00000 0 -12644130.140 -5264958.581 -21503545.969 10 0 60269 74700.00000 0 -10140672.830 -6336300.861 -22519057.484 10 0 60269 75600.00000 0 -7639520.975 -7640452.760 -23096675.310 10 0 60269 76500.00000 0 -5207646.991 -9152966.673 -23225284.945 10 0 60269 77400.00000 0 -2906971.355 -10837779.774 -22902507.226 10 0 60269 78300.00000 0 -791987.427 -12648583.326 -22134735.182 10 0 60269 79200.00000 0 1092289.672 -14530636.891 -20937000.743 10 0 60269 80100.00000 0 2711966.110 -16422951.597 -19332674.560 10 0 60269 81000.00000 0 4045437.517 -18260751.282 -17353005.187 10 0 60269 81900.00000 0 5084035.479 -19978108.819 -15036506.868 10 0 60269 82800.00000 0 5832127.298 -21510647.642 -12428207.962 10 0 60269 83700.00000 0 6306666.849 -22798195.804 -9578774.630 10 0 60269 84600.00000 0 6536217.167 -23787281.893 -6543526.720 10 0 60269 85500.00000 0 6559487.444 -24433368.699 -3381364.920 99